Hourly Weather Asunción

Today, 5 July, Sunday

Time Temperature Precipitation Wind Pressure Humidity
00:00 +19°C° 0 mm 3 mps 751 mmHg 72%
01:00 +20°C° 0 mm 3 mps 751 mmHg 70%
02:00 +20°C° 0 mm 3 mps 751 mmHg 69%
03:00 +20°C° 0 mm 3 mps 751 mmHg 69%
04:00 +20°C° 0 mm 3 mps 751 mmHg 69%
05:00 +21°C° 0 mm 2 mps 751 mmHg 70%
06:00 +21°C° 0 mm 2 mps 752 mmHg 70%
07:00 +21°C° 0 mm 2 mps 752 mmHg 71%
08:00 +21°C° 0 mm 2 mps 753 mmHg 71%
09:00 +21°C° 0.1 mm 2 mps 753 mmHg 73%
10:00 +21°C° 0.1 mm 2 mps 753 mmHg 74%
11:00 +23°C° 0.1 mm 2 mps 754 mmHg 76%
12:00 +23°C° 0.1 mm 2 mps 753 mmHg 76%
13:00 +23°C° 0.1 mm 2 mps 753 mmHg 75%
14:00 +24°C° 0.1 mm 2 mps 752 mmHg 75%
15:00 +23°C° 0.1 mm 2 mps 752 mmHg 79%
16:00 +23°C° 0.1 mm 2 mps 752 mmHg 84%
17:00 +21°C° 0.1 mm 2 mps 753 mmHg 88%
18:00 +21°C° 0.1 mm 2 mps 753 mmHg 90%
19:00 +20°C° 0.1 mm 2 mps 753 mmHg 92%
20:00 +20°C° 0.1 mm 2 mps 754 mmHg 94%
21:00 +20°C° 0 mm 2 mps 754 mmHg 95%
22:00 +21°C° 0 mm 1 mps 754 mmHg 95%
23:00 +20°C° 0 mm 1 mps 754 mmHg 95%

Tomorrow, 6 July, Monday

Time Temperature Precipitation Wind Pressure Humidity
00:00 +20°C° 0 mm 1 mps 754 mmHg 95%
01:00 +20°C° 0 mm 1 mps 753 mmHg 94%
02:00 +20°C° 0 mm 1 mps 753 mmHg 94%
03:00 +20°C° 0 mm 1 mps 753 mmHg 94%
04:00 +20°C° 0 mm 1 mps 754 mmHg 94%
05:00 +20°C° 0 mm 1 mps 754 mmHg 94%
06:00 +20°C° 0 mm 1 mps 754 mmHg 93%
07:00 +21°C° 0 mm 1 mps 754 mmHg 92%
08:00 +20°C° 0 mm 2 mps 754 mmHg 92%
09:00 +21°C° 0 mm 2 mps 755 mmHg 86%
10:00 +24°C° 0 mm 2 mps 755 mmHg 80%
11:00 +25°C° 0 mm 2 mps 755 mmHg 75%
12:00 +24°C° 0.1 mm 2 mps 754 mmHg 79%
13:00 +23°C° 0.1 mm 1 mps 754 mmHg 83%
14:00 +23°C° 0.1 mm 1 mps 753 mmHg 87%
15:00 +22°C° 0.1 mm 1 mps 753 mmHg 89%
16:00 +21°C° 0.1 mm 2 mps 753 mmHg 91%
17:00 +21°C° 0.1 mm 2 mps 752 mmHg 93%
18:00 +20°C° 0.6 mm 2 mps 752 mmHg 94%
19:00 +20°C° 0.6 mm 2 mps 752 mmHg 96%
20:00 +19°C° 0.6 mm 2 mps 753 mmHg 97%
21:00 +19°C° 1.7 mm 2 mps 753 mmHg 97%
22:00 +19°C° 1.7 mm 2 mps 753 mmHg 97%
23:00 +19°C° 1.7 mm 2 mps 753 mmHg 98%

Day after tomorrow, 7 July, Tuesday

Time Temperature Precipitation Wind Pressure Humidity
00:00 +20°C° 3.6 mm 1 mps 753 mmHg 98%
01:00 +20°C° 3.6 mm 1 mps 752 mmHg 98%
02:00 +19°C° 3.6 mm 1 mps 751 mmHg 98%
03:00 +19°C° 1.3 mm 1 mps 751 mmHg 98%
04:00 +19°C° 1.3 mm 1 mps 751 mmHg 98%
05:00 +19°C° 1.3 mm 1 mps 751 mmHg 98%
06:00 +19°C° 2.3 mm 1 mps 751 mmHg 98%
07:00 +18°C° 2.3 mm 2 mps 751 mmHg 98%
08:00 +18°C° 2.3 mm 2 mps 751 mmHg 98%
09:00 +18°C° 5.1 mm 2 mps 751 mmHg 98%
10:00 +18°C° 5.1 mm 2 mps 751 mmHg 98%
11:00 +18°C° 5.1 mm 3 mps 752 mmHg 97%
12:00 +18°C° 3.7 mm 3 mps 751 mmHg 97%
13:00 +18°C° 3.7 mm 3 mps 751 mmHg 97%
14:00 +17°C° 3.7 mm 3 mps 751 mmHg 97%
15:00 +17°C° 2.2 mm 3 mps 751 mmHg 97%
16:00 +17°C° 2.2 mm 3 mps 752 mmHg 97%
17:00 +16°C° 2.2 mm 3 mps 752 mmHg 96%
18:00 +15°C° 0.7 mm 4 mps 753 mmHg 96%
19:00 +14°C° 0.7 mm 4 mps 754 mmHg 95%
20:00 +14°C° 0.7 mm 4 mps 754 mmHg 95%
21:00 +14°C° 0.2 mm 4 mps 755 mmHg 95%
22:00 +13°C° 0.2 mm 4 mps 755 mmHg 94%
23:00 +13°C° 0.2 mm 4 mps 756 mmHg 94%

8 July, Wednesday

Time Temperature Precipitation Wind Pressure Humidity
00:00 +13°C° 0 mm 4 mps 756 mmHg 94%
01:00 +13°C° 0 mm 3 mps 756 mmHg 93%
02:00 +12°C° 0 mm 3 mps 756 mmHg 93%
03:00 +12°C° 0 mm 3 mps 757 mmHg 92%
04:00 +12°C° 0 mm 3 mps 757 mmHg 90%
05:00 +11°C° 0 mm 3 mps 757 mmHg 89%
06:00 +11°C° 0 mm 3 mps 758 mmHg 88%
07:00 +11°C° 0 mm 4 mps 759 mmHg 87%
08:00 +11°C° 0 mm 4 mps 759 mmHg 86%
09:00 +11°C° 0 mm 4 mps 760 mmHg 83%
10:00 +11°C° 0 mm 3 mps 760 mmHg 80%
11:00 +11°C° 0 mm 3 mps 760 mmHg 77%
12:00 +12°C° 0 mm 3 mps 760 mmHg 74%
13:00 +12°C° 0 mm 3 mps 759 mmHg 71%
14:00 +13°C° 0 mm 3 mps 759 mmHg 69%
15:00 +13°C° 0 mm 2 mps 759 mmHg 70%
16:00 +13°C° 0 mm 2 mps 759 mmHg 72%
17:00 +13°C° 0 mm 1 mps 759 mmHg 73%
18:00 +12°C° 0 mm 1 mps 759 mmHg 76%
19:00 +11°C° 0 mm 1 mps 760 mmHg 78%
20:00 +11°C° 0 mm 1 mps 760 mmHg 81%
21:00 +10°C° 0 mm 1 mps 760 mmHg 84%
22:00 +8°C° 0 mm 2 mps 761 mmHg 87%
23:00 +8°C° 0 mm 2 mps 761 mmHg 90%

9 July, Thursday

Time Temperature Precipitation Wind Pressure Humidity
00:00 +7°C° 0 mm 2 mps 761 mmHg 90%
01:00 +8°C° 0 mm 1 mps 761 mmHg 91%
02:00 +7°C° 0 mm 1 mps 761 mmHg 92%
03:00 +7°C° 0 mm 1 mps 761 mmHg 92%
04:00 +7°C° 0 mm 1 mps 761 mmHg 93%
05:00 +6°C° 0 mm 2 mps 761 mmHg 93%
06:00 +6°C° 0 mm 2 mps 762 mmHg 90%
07:00 +7°C° 0 mm 2 mps 762 mmHg 87%
08:00 +8°C° 0 mm 2 mps 762 mmHg 84%
09:00 +10°C° 0 mm 2 mps 762 mmHg 77%
10:00 +13°C° 0 mm 2 mps 762 mmHg 69%
11:00 +15°C° 0 mm 2 mps 762 mmHg 61%
12:00 +16°C° 0 mm 2 mps 761 mmHg 59%
13:00 +17°C° 0 mm 2 mps 761 mmHg 57%
14:00 +17°C° 0 mm 2 mps 760 mmHg 55%
15:00 +16°C° 0 mm 2 mps 760 mmHg 61%
16:00 +15°C° 0 mm 1 mps 760 mmHg 67%
17:00 +14°C° 0 mm 1 mps 759 mmHg 73%
18:00 +13°C° 0 mm 1 mps 759 mmHg 77%
19:00 +12°C° 0 mm 1 mps 760 mmHg 81%
20:00 +10°C° 0 mm 2 mps 760 mmHg 85%
21:00 +10°C° 0 mm 2 mps 760 mmHg 81%
22:00 +12°C° 0 mm 2 mps 760 mmHg 78%
23:00 +12°C° 0 mm 2 mps 760 mmHg 75%

10 July, Friday

Time Temperature Precipitation Wind Pressure Humidity
00:00 +12°C° 0 mm 2 mps 759 mmHg 74%
01:00 +12°C° 0 mm 2 mps 759 mmHg 74%
02:00 +12°C° 0 mm 1 mps 759 mmHg 74%
03:00 +12°C° 0 mm 1 mps 759 mmHg 73%
04:00 +12°C° 0 mm 1 mps 759 mmHg 73%
05:00 +13°C° 0 mm 1 mps 759 mmHg 73%
06:00 +13°C° 0 mm 2 mps 760 mmHg 74%
07:00 +13°C° 0 mm 2 mps 761 mmHg 74%
08:00 +13°C° 0 mm 2 mps 761 mmHg 75%
09:00 +13°C° 0 mm 2 mps 761 mmHg 74%
10:00 +14°C° 0 mm 1 mps 762 mmHg 72%
11:00 +15°C° 0 mm 1 mps 762 mmHg 71%
12:00 +15°C° 0 mm 1 mps 761 mmHg 71%
13:00 +15°C° 0 mm 1 mps 761 mmHg 72%
14:00 +15°C° 0 mm 1 mps 760 mmHg 72%
15:00 +15°C° 0 mm 2 mps 760 mmHg 74%
16:00 +15°C° 0 mm 2 mps 760 mmHg 75%
17:00 +14°C° 0 mm 2 mps 760 mmHg 77%
18:00 +14°C° 0 mm 2 mps 760 mmHg 77%
19:00 +14°C° 0 mm 2 mps 760 mmHg 78%
20:00 +13°C° 0 mm 1 mps 760 mmHg 79%
21:00 +14°C° 0 mm 1 mps 760 mmHg 78%
22:00 +14°C° 0 mm 1 mps 760 mmHg 77%
23:00 +14°C° 0 mm 1 mps 760 mmHg 76%
Show more